Pukarua Airport


Codes: NTGQ/PUK
Name: Pukarua Airport
City: Pukarua
Country: French Polynesia
Elevation: 5 ft.

Photos at Pukarua Airport


   Photos courtesy of SpottingLog. You can add your own sightings and photos by signing up for a free trial today.



No photos found.

Weather at Pukarua Airport


Time (UTC)DescriptionTempratureWindCloud coverageVisibilityPressureHumidity
21-Feb-2024 03:00Broken Clouds28°C13 mph, E77%10000m1015hPa73%
21-Feb-2024 06:00Broken Clouds28°C13 mph, E81%10000m1016hPa74%
21-Feb-2024 09:00Light Rain28°C13 mph, E62%10000m1016hPa78%
21-Feb-2024 12:00Light Rain27°C16 mph, NE59%10000m1014hPa80%
21-Feb-2024 15:00Light Rain28°C16 mph, NE30%10000m1015hPa75%
21-Feb-2024 18:00Light Rain28°C11 mph, NE49%10000m1017hPa75%
21-Feb-2024 21:00Light Rain27°C16 mph, NE69%10000m1016hPa80%
22-Feb-2024 00:00Broken Clouds28°C13 mph, NE84%10000m1015hPa73%
22-Feb-2024 03:00Broken Clouds28°C11 mph, NE81%10000m1016hPa73%
22-Feb-2024 06:00Overcast Clouds28°C11 mph, NE88%10000m1017hPa73%
22-Feb-2024 09:00Broken Clouds28°C11 mph, NE77%10000m1017hPa75%
22-Feb-2024 12:00Light Rain28°C9 mph, NE67%10000m1015hPa77%
22-Feb-2024 15:00Scattered Clouds27°C11 mph, E49%10000m1016hPa77%
22-Feb-2024 18:00Scattered Clouds28°C11 mph, NE30%10000m1017hPa76%
22-Feb-2024 21:00Scattered Clouds28°C11 mph, NE36%10000m1015hPa75%
23-Feb-2024 00:00Light Rain28°C9 mph, NE64%10000m1013hPa74%
23-Feb-2024 03:00Light Rain28°C9 mph, NE97%10000m1014hPa75%
23-Feb-2024 06:00Overcast Clouds28°C9 mph, NE85%10000m1015hPa76%
23-Feb-2024 09:00Light Rain27°C9 mph, NE48%10000m1015hPa79%
23-Feb-2024 12:00Moderate Rain27°C7 mph, NE33%10000m1014hPa78%
23-Feb-2024 15:00Light Rain27°C9 mph, NE51%10000m1014hPa73%
23-Feb-2024 18:00Broken Clouds27°C9 mph, NE62%10000m1015hPa73%
23-Feb-2024 21:00Few Clouds28°C9 mph, NE23%10000m1014hPa73%
24-Feb-2024 00:00Scattered Clouds28°C7 mph, NE26%10000m1012hPa72%
24-Feb-2024 03:00Broken Clouds28°C7 mph, E53%10000m1012hPa67%
24-Feb-2024 06:00Broken Clouds28°C9 mph, E72%10000m1014hPa69%
24-Feb-2024 09:00Few Clouds27°C9 mph, E19%10000m1013hPa73%
24-Feb-2024 12:00Scattered Clouds27°C9 mph, E26%10000m1011hPa77%
24-Feb-2024 15:00Few Clouds28°C11 mph, E18%10000m1012hPa74%
24-Feb-2024 18:00Few Clouds28°C11 mph, E14%10000m1014hPa74%
24-Feb-2024 21:00Light Rain28°C13 mph, NE12%10000m1012hPa77%
25-Feb-2024 00:00Light Rain28°C9 mph, E12%10000m1011hPa75%
25-Feb-2024 03:00Light Rain28°C11 mph, E13%10000m1011hPa71%
25-Feb-2024 06:00Clear Sky28°C13 mph, E10%10000m1013hPa72%
25-Feb-2024 09:00Light Rain28°C11 mph, E78%10000m1013hPa76%
25-Feb-2024 12:00Light Rain27°C11 mph, E60%10000m1012hPa78%
25-Feb-2024 15:00Light Rain28°C13 mph, E45%10000m1013hPa77%
25-Feb-2024 18:00Light Rain28°C11 mph, E35%10000m1015hPa77%
25-Feb-2024 21:00Light Rain28°C13 mph, NE24%10000m1014hPa77%
26-Feb-2024 00:00Light Rain28°C11 mph, NE16%10000m1013hPa72%